Time,TemperatureF,DewpointF,PressureIn,WindDirection,WindDirectionDegrees,WindSpeedMPH,WindSpeedGustMPH,Humidity,HourlyPrecipIn,Conditions,Clouds,dailyrainin,SoftwareType,DateUTC
2013-09-16 00:14:00,61.0,60.0,30.08,North,0,0.0,0.0,95,0.00,,,0.00,,2013-09-16 04:14:00,
2013-09-16 00:24:00,61.0,60.0,30.08,North,0,0.0,0.0,96,0.00,,,0.00,,2013-09-16 04:24:00,
2013-09-16 00:54:00,62.0,61.0,30.08,North,0,0.0,0.0,96,0.00,,,0.00,,2013-09-16 04:54:00,
2013-09-16 01:22:00,62.0,61.0,30.08,North,0,0.0,0.0,96,0.00,,,0.00,,2013-09-16 05:22:00,
2013-09-16 01:52:00,63.0,62.0,30.07,North,0,0.0,0.0,96,0.00,,,0.00,,2013-09-16 05:52:00,
2013-09-16 02:22:00,63.0,62.0,30.07,North,0,0.0,0.0,96,0.00,,,0.00,,2013-09-16 06:22:00,
2013-09-16 02:52:00,63.0,62.0,30.07,North,0,0.0,0.0,96,0.00,,,0.00,,2013-09-16 06:52:00,
2013-09-16 03:22:00,63.0,62.0,30.06,North,0,0.0,0.0,96,0.00,,,0.00,,2013-09-16 07:22:00,
2013-09-16 03:52:00,62.0,61.0,30.06,North,0,0.0,0.0,96,0.00,,,0.00,,2013-09-16 07:52:00,
2013-09-16 04:02:00,62.0,61.0,30.06,North,0,0.0,0.0,96,0.00,,,0.00,,2013-09-16 08:02:00,
2013-09-16 04:22:00,63.0,62.0,30.05,North,0,0.0,0.0,97,0.00,,,0.00,,2013-09-16 08:22:00,
2013-09-16 04:52:00,63.0,62.0,30.06,North,0,0.0,0.0,96,0.00,,,0.00,,2013-09-16 08:52:00,
2013-09-16 05:22:00,63.0,62.0,30.06,North,0,0.0,0.0,96,0.00,,,0.00,,2013-09-16 09:22:00,
2013-09-16 05:33:00,63.0,62.0,30.06,North,0,0.0,0.0,96,0.00,,,0.00,,2013-09-16 09:33:00,
2013-09-16 05:53:00,64.0,63.0,30.05,North,0,0.0,0.0,97,0.14,,,0.14,,2013-09-16 09:53:00,
2013-09-16 06:23:00,64.0,63.0,30.05,North,0,0.0,0.0,97,0.14,,,0.14,,2013-09-16 10:23:00,
2013-09-16 06:53:00,65.0,64.0,30.05,North,0,0.0,0.0,97,0.00,,,0.14,,2013-09-16 10:53:00,
2013-09-16 07:22:00,65.0,64.0,30.05,North,0,0.0,0.0,98,0.00,,,0.14,,2013-09-16 11:22:00,
2013-09-16 07:33:00,65.0,64.0,30.05,North,0,0.0,0.0,98,0.00,,,0.14,,2013-09-16 11:33:00,
2013-09-16 07:52:00,65.0,64.0,30.06,North,0,0.0,0.0,98,0.00,,,0.14,,2013-09-16 11:52:00,
2013-09-16 08:01:00,65.0,64.0,30.06,North,0,0.0,0.0,98,0.00,,,0.14,,2013-09-16 12:01:00,
2013-09-16 08:22:00,66.0,65.0,30.06,North,0,0.0,0.0,98,0.00,,,0.14,,2013-09-16 12:22:00,
2013-09-16 08:52:00,67.0,66.0,30.06,North,0,0.0,0.0,98,0.00,,,0.14,,2013-09-16 12:52:00,
2013-09-16 09:22:00,69.0,68.0,30.06,North,0,0.0,0.0,98,0.00,,,0.14,,2013-09-16 13:22:00,
2013-09-16 09:52:00,71.0,70.0,30.06,North,0,0.0,2.0,98,0.00,,,0.14,,2013-09-16 13:52:00,
2013-09-16 10:22:00,71.0,70.0,30.06,North,0,0.0,1.0,97,0.00,,,0.14,,2013-09-16 14:22:00,
2013-09-16 10:32:00,71.0,70.0,30.06,North,0,0.0,1.0,97,0.00,,,0.14,,2013-09-16 14:32:00,
2013-09-16 10:52:00,72.0,70.0,30.06,North,0,0.0,1.0,95,0.00,,,0.14,,2013-09-16 14:52:00,
2013-09-16 11:02:00,72.0,70.0,30.06,North,0,0.0,1.0,95,0.00,,,0.14,,2013-09-16 15:02:00,
2013-09-16 11:22:00,76.0,72.0,30.06,North,0,0.0,3.0,88,0.00,,,0.14,,2013-09-16 15:22:00,
2013-09-16 11:33:00,76.0,72.0,30.06,North,0,0.0,3.0,88,0.00,,,0.14,,2013-09-16 15:33:00,
2013-09-16 11:53:00,78.0,72.0,30.05,North,0,0.0,5.0,81,0.00,,,0.14,,2013-09-16 15:53:00,
2013-09-16 12:23:00,81.0,72.0,30.04,SSE,167,1.0,7.0,74,0.00,,,0.14,,2013-09-16 16:23:00,
2013-09-16 12:52:00,80.0,71.0,30.04,North,0,0.0,3.0,73,0.00,,,0.14,,2013-09-16 16:52:00,
2013-09-16 13:23:00,83.0,66.0,30.02,North,0,0.0,3.0,57,0.00,,,0.14,,2013-09-16 17:23:00,
2013-09-16 13:53:00,82.0,65.0,30.02,North,0,0.0,3.0,57,0.00,,,0.14,,2013-09-16 17:53:00,
2013-09-16 14:12:00,83.0,65.0,30.02,North,0,0.0,5.0,54,0.00,,,0.14,,2013-09-16 18:12:00,
2013-09-16 14:22:00,83.0,65.0,30.02,North,0,0.0,5.0,54,0.00,,,0.14,,2013-09-16 18:22:00,
2013-09-16 14:52:00,83.0,65.0,30.00,North,0,0.0,2.0,55,0.00,,,0.14,,2013-09-16 18:52:00,
2013-09-16 15:22:00,84.0,63.0,30.00,North,0,0.0,5.0,50,0.00,,,0.14,,2013-09-16 19:22:00,
2013-09-16 15:53:00,84.0,66.0,29.99,North,0,0.0,4.0,55,0.00,,,0.14,,2013-09-16 19:53:00,
2013-09-16 16:22:00,82.0,67.0,29.98,North,0,0.0,1.0,60,0.00,,,0.14,,2013-09-16 20:22:00,
2013-09-16 16:52:00,82.0,64.0,29.98,North,0,0.0,3.0,55,0.00,,,0.14,,2013-09-16 20:52:00,
2013-09-16 17:03:00,82.0,64.0,29.98,North,0,0.0,3.0,55,0.00,,,0.14,,2013-09-16 21:03:00,
2013-09-16 17:22:00,81.0,64.0,29.99,NW,313,1.0,6.0,57,0.00,,,0.14,,2013-09-16 21:22:00,
2013-09-16 17:55:00,79.0,63.0,30.01,NNE,28,1.0,5.0,59,0.00,,,0.14,,2013-09-16 21:55:00,
2013-09-16 18:24:00,77.0,63.0,30.02,North,0,0.0,4.0,62,0.00,,,0.14,,2013-09-16 22:24:00,
2013-09-16 18:53:00,77.0,62.0,30.02,North,0,0.0,6.0,60,0.00,,,0.14,,2013-09-16 22:53:00,
2013-09-16 19:22:00,75.0,65.0,30.03,North,0,0.0,1.0,70,0.00,,,0.14,,2013-09-16 23:22:00,
2013-09-16 19:52:00,73.0,62.0,30.04,North,0,0.0,0.0,69,0.00,,,0.14,,2013-09-16 23:52:00,
2013-09-16 20:22:00,73.0,64.0,30.04,North,0,0.0,0.0,74,0.00,,,0.14,,2013-09-17 00:22:00,
2013-09-16 20:52:00,72.0,65.0,30.07,North,0,0.0,0.0,78,0.00,,,0.14,,2013-09-17 00:52:00,
2013-09-16 21:11:00,72.0,65.0,30.07,North,0,0.0,0.0,78,0.00,,,0.14,,2013-09-17 01:11:00,
2013-09-16 21:21:00,72.0,65.0,30.07,North,0,0.0,0.0,78,0.00,,,0.14,,2013-09-17 01:21:00,
2013-09-16 21:52:00,71.0,63.0,30.09,North,0,0.0,0.0,77,0.00,,,0.14,,2013-09-17 01:52:00,
2013-09-16 22:22:00,70.0,62.0,30.11,North,0,0.0,7.0,77,0.00,,,0.14,,2013-09-17 02:22:00,
2013-09-16 22:52:00,70.0,62.0,30.12,NW,305,1.0,5.0,75,0.00,,,0.14,,2013-09-17 02:52:00,
2013-09-16 23:23:00,69.0,61.0,30.13,North,0,0.0,2.0,77,0.00,,,0.14,,2013-09-17 03:23:00,
2013-09-16 23:54:00,68.0,61.0,30.13,North,0,0.0,1.0,78,0.00,,,0.14,,2013-09-17 03:54:00,